Regional Weather Roundup
Issued by NWS Sterling, VA

Home | Current Version | Previous Version | Graphics & Text | Print | Product List | Glossary On
Versions: 1 2 3 4 5 6 7 8 9 10 11 12 13 14 15 16 17 18 19 20 21 22 23 24 25 26 27 28 29 30 31 32 33 34 35 36 37 38 39 40 41 42 43 44 45 46 47 48 49 50
000
ASUS41 KLWX 230610
RWRLWX

REGIONAL WEATHER ROUNDUP
NATIONAL WEATHER SERVICE BALTIMORE MD/WASHINGTON DC
200 AM EDT SAT AUG 23 2014

Note: "FAIR" indicates few or no clouds below 12,000 feet
with no significant weather and/or obstructions to visibility.
 TC=TEMPERATURE CELSIUS

 * =Non NWS site. Station does not report precipitation (e.g. rain,
    snow, etc.), thunder, or fog.

DCZ001-MDZ009-015-VAZ040>042-051-053>054-230700-
WASHINGTON METRO
  /KDAA//-FT BELVOIR

CITY           SKY/WX    TMP DP  RH WIND       PRES   REMARKS
WASHINGTON NAT CLOUDY    75  67  76 E6        30.00S
DULLES         CLOUDY    71  68  90 SE5       30.00S
ANDREWS AFB    MOCLDY    69  69  98 E6        29.99F
QUANTICO       MOCLDY    73  69  87 E6        29.99F
COLLEGE PARK*  CLOUDY    72  70  94 CALM      29.99F
LEESBURG*      CLOUDY    73  72  94 S3        30.00F
MANASSAS*      CLOUDY    73  72  94 SE3       29.98F
GAITHERSBURG*  CLOUDY    70  66  88 CALM      30.04S

$$

MDZ006>007-011-014-230700-
BALTIMORE METRO

CITY           SKY/WX    TMP DP  RH WIND       PRES   REMARKS
BWI AIRPORT    MOCLDY    71  65  81 E7        30.00F
MD SCIENCE CTR   N/A     72  64  76 MISG      30.01F
MARTIN STATE   FAIR      70  66  88 NE7       30.02F
ANNAPOLIS        N/A     72  66  81 E10       29.99F
FORT MEADE*    FAIR      68  64  88 SE6       30.01F

$$

MDZ012-015-019>023-230700-
MARYLAND EASTERN SHORE

CITY           SKY/WX    TMP DP  RH WIND       PRES   REMARKS
OCEAN CITY     FAIR      73  66  78 E8        29.98F
SALISBURY      FAIR      69  65  86 CALM      29.98F
BAY BRIDGE AP*   N/A     70  64  83 E5        30.00F
CAMBRIDGE*     FAIR      68  64  88 CALM      29.99S
EASTON*        FAIR      69  69 100 CALM      30.04S

$$

MDZ017>025-230700-
SOUTHERN MARYLAND

CITY           SKY/WX    TMP DP  RH WIND       PRES   REMARKS
PATUXENT RIVER MOCLDY    71  68  90 E10       29.98F
ST INIGOES     FAIR      72  66  81 E6        29.98F
LEONARDTOWN*   CLOUDY    72  64  78 E5        30.00F

$$

MDZ003>005-230700-
NORTH CENTRAL MARYLAND

CITY           SKY/WX    TMP DP  RH WIND       PRES   REMARKS
FREDERICK*     CLOUDY   N/A N/A N/A CALM      30.02F
HAGERSTOWN APT CLOUDY    72  67  84 CALM      30.00S
WESTMINSTER*   CLOUDY    70  66  88 SE3       30.02S

$$

MDZ501>502-230700-
WESTERN MARYLAND

CITY           SKY/WX    TMP DP  RH WIND       PRES   REMARKS
OAKLAND*       CLOUDY    64 N/A N/A SW5       30.07F HAZE
CUMBERLAND*    CLOUDY    72  70  94 CALM      30.02F

$$

VAZ025>031-230700-
SHENANDOAH VALLEY

CITY           SKY/WX    TMP DP  RH WIND       PRES   REMARKS
WINCHESTER*    CLOUDY    72  68  88 SE3       29.99F
STAUNTON*      CLOUDY    73  70  91 NE3       30.02S FOG

$$

WVZ021-048>050-054>055-230700-
EASTERN WEST VIRGINIA PANHANDLE

CITY           SKY/WX    TMP DP  RH WIND       PRES   REMARKS
MARTINSBURG    CLOUDY    73  67  81 SE3       30.00S
PETERSBURG*    NOT AVBL

$$

VAZ036>039-050-230700-
CENTRAL FOOTHILLS

CITY           SKY/WX    TMP DP  RH WIND       PRES   REMARKS
CHARLOTTESVILL HVY RAIN  71  70  96 S6        29.98S FOG
ORANGE*        RAIN      70  68  94 CALM      30.00S

$$

VAZ055>057-230700-
NORTH AND CENTRAL PIEDMONT

CITY           SKY/WX    TMP DP  RH WIND       PRES   REMARKS
FREDERICKSBRG* MOCLDY    72  72 100 CALM      29.97F
STAFFORD*      CLOUDY    73  73 100 CALM      30.02S

$$

NCZ024-NYZ072-PAZ021-071-VAZ022-071-230700-
OTHER REGIONAL OBSERVATIONS

CITY           SKY/WX    TMP DP  RH WIND       PRES   REMARKS
NEW YORK CITY  CLOUDY    69  56  62 VRB6      30.08S
PHILADELPHIA   FAIR      68  62  81 NE5       30.03F
PITTSBURGH     FOG       69  68  96 NW6       29.98F VSB 1/4
ROANOKE        CLOUDY    74  68  81 CALM      30.01S
RICHMOND       MOCLDY    73  70  90 E5        29.97F
RALEIGH        MOCLDY    76  73  91 SW5       29.96F

$$

ANZ530>537-230700-
MARINE OBSERVATIONS

STATION/POSITION TIME  TEMP    WIND        PRES
                       AIR SEA DIR/SP/G
                 (UTC) (F)     (DEG/KT/KT) (MB)
THOMAS PT LIGHT  0600   71 78   90/ 11/ 13 1016.2F
BALT KEY BRIDGE  0600   72      90/ 12/ 14 1015.6F
COVE POINT       0600   71     110/  8/ 10 1015.5F
LEWISETTA        0600   75 80  100/ 12/ 14 1014.7F
SOLOMONS ISLAND  0600      80                N/A
PINEY POINT      0600          120/ 12/ 13   N/A

$$



USA.gov is the U.S. government's official web portal to all federal, state and local government web resources and services.